Year,Month,Day,Hour,Minute,Value (Times are PST for temperature in C)
2016,04,03,00,00,8.50
2016,04,03,00,01,8.50
2016,04,03,00,02,8.50
2016,04,03,00,03,8.50
2016,04,03,00,04,8.50
2016,04,03,00,05,8.50
2016,04,03,00,06,8.50
2016,04,03,00,07,8.40
2016,04,03,00,08,8.40
2016,04,03,00,09,8.40
2016,04,03,00,10,8.40
2016,04,03,00,11,8.40
2016,04,03,00,12,8.40
2016,04,03,00,13,8.40
2016,04,03,00,14,8.40
2016,04,03,00,15,8.40
2016,04,03,00,16,8.40
2016,04,03,00,17,8.40
2016,04,03,00,18,8.40
2016,04,03,00,19,8.40
2016,04,03,00,20,8.40
2016,04,03,00,21,8.40
2016,04,03,00,22,8.40
2016,04,03,00,23,8.40
2016,04,03,00,24,8.40
2016,04,03,00,25,8.40
2016,04,03,00,26,8.40
2016,04,03,00,27,8.40
2016,04,03,00,28,8.40
2016,04,03,00,29,8.40
2016,04,03,00,30,8.50
2016,04,03,00,31,8.50
2016,04,03,00,32,8.50
2016,04,03,00,33,8.50
2016,04,03,00,34,8.60
2016,04,03,00,35,8.60
2016,04,03,00,36,8.60
2016,04,03,00,37,8.60
2016,04,03,00,38,8.60
2016,04,03,00,39,8.50
2016,04,03,00,40,8.50
2016,04,03,00,41,8.60
2016,04,03,00,42,8.50
2016,04,03,00,43,8.60
2016,04,03,00,44,8.60
2016,04,03,00,45,8.50
2016,04,03,00,46,8.50
2016,04,03,00,47,8.50
2016,04,03,00,48,8.40
2016,04,03,00,49,8.40
2016,04,03,00,50,8.40
2016,04,03,00,51,8.30
2016,04,03,00,52,8.30
2016,04,03,00,53,8.30
2016,04,03,00,54,8.40
2016,04,03,00,55,8.40
2016,04,03,00,56,8.40
2016,04,03,00,57,8.50
2016,04,03,00,58,8.50
2016,04,03,00,59,8.50
2016,04,03,01,00,8.50
2016,04,03,01,01,8.50
2016,04,03,01,02,8.50
2016,04,03,01,03,8.50
2016,04,03,01,04,8.40
2016,04,03,01,05,8.40
2016,04,03,01,06,8.40
2016,04,03,01,07,8.40
2016,04,03,01,08,8.40
2016,04,03,01,09,8.40
2016,04,03,01,10,8.40
2016,04,03,01,11,8.40
2016,04,03,01,12,8.40
2016,04,03,01,13,8.40
2016,04,03,01,14,8.40
2016,04,03,01,15,8.30
2016,04,03,01,16,8.30
2016,04,03,01,17,8.30
2016,04,03,01,18,8.30
2016,04,03,01,19,8.30
2016,04,03,01,20,8.30
2016,04,03,01,21,8.30
2016,04,03,01,22,8.30
2016,04,03,01,23,8.20
2016,04,03,01,24,8.20
2016,04,03,01,25,8.20
2016,04,03,01,26,8.30
2016,04,03,01,27,8.30
2016,04,03,01,28,8.30
2016,04,03,01,29,8.30
2016,04,03,01,30,8.20
2016,04,03,01,31,8.20
2016,04,03,01,32,8.20
2016,04,03,01,33,8.30
2016,04,03,01,34,8.30
2016,04,03,01,35,8.30
2016,04,03,01,36,8.30
2016,04,03,01,37,8.30
2016,04,03,01,38,8.30
2016,04,03,01,39,8.30
2016,04,03,01,40,8.20
2016,04,03,01,41,8.20
2016,04,03,01,42,8.20
2016,04,03,01,43,8.10
2016,04,03,01,44,8.10
2016,04,03,01,45,8.10
2016,04,03,01,46,8.10
2016,04,03,01,47,8.00
2016,04,03,01,48,8.00
2016,04,03,01,49,8.00
2016,04,03,01,50,8.00
2016,04,03,01,51,7.90
2016,04,03,01,52,7.90
2016,04,03,01,53,7.90
2016,04,03,01,54,7.80
2016,04,03,01,55,7.80
2016,04,03,01,56,7.80
2016,04,03,01,57,7.80
2016,04,03,01,58,7.80
2016,04,03,01,59,7.80
2016,04,03,02,00,7.90
2016,04,03,02,01,7.90
2016,04,03,02,02,7.90
2016,04,03,02,03,7.80
2016,04,03,02,04,7.80
2016,04,03,02,05,7.80
2016,04,03,02,06,7.80
2016,04,03,02,07,7.80
2016,04,03,02,08,7.80
2016,04,03,02,09,7.80
2016,04,03,02,10,7.80
2016,04,03,02,11,7.80
2016,04,03,02,12,7.70
2016,04,03,02,13,7.70
2016,04,03,02,14,7.70
2016,04,03,02,15,7.70
2016,04,03,02,16,7.60
2016,04,03,02,17,7.60
2016,04,03,02,18,7.60
2016,04,03,02,19,7.60
2016,04,03,02,20,7.60
2016,04,03,02,21,7.50
2016,04,03,02,22,7.50
2016,04,03,02,23,7.50
2016,04,03,02,24,7.40
2016,04,03,02,25,7.40
2016,04,03,02,26,7.40
2016,04,03,02,27,7.40
2016,04,03,02,28,7.40
2016,04,03,02,29,7.40
2016,04,03,02,30,7.40
2016,04,03,02,31,7.40
2016,04,03,02,32,7.30
2016,04,03,02,33,7.30
2016,04,03,02,34,7.30
2016,04,03,02,35,7.30
2016,04,03,02,36,7.30
2016,04,03,02,37,7.30
2016,04,03,02,38,7.30
2016,04,03,02,39,7.30
2016,04,03,02,40,7.30
2016,04,03,02,41,7.30
2016,04,03,02,42,7.30
2016,04,03,02,43,7.30
2016,04,03,02,44,7.30
2016,04,03,02,45,7.30
2016,04,03,02,46,7.30
2016,04,03,02,47,7.30
2016,04,03,02,48,7.30
2016,04,03,02,49,7.30
2016,04,03,02,50,7.30
2016,04,03,02,51,7.30
2016,04,03,02,52,7.30
2016,04,03,02,53,7.30
2016,04,03,02,54,7.30
2016,04,03,02,55,7.40
2016,04,03,02,56,7.50
2016,04,03,02,57,7.50
2016,04,03,02,58,7.50
2016,04,03,02,59,7.60
2016,04,03,03,00,7.60
2016,04,03,03,01,7.60
2016,04,03,03,02,7.60
2016,04,03,03,03,7.60
2016,04,03,03,04,7.70
2016,04,03,03,05,7.70
2016,04,03,03,06,7.70
2016,04,03,03,07,7.80
2016,04,03,03,08,7.80
2016,04,03,03,09,7.90
2016,04,03,03,10,8.00
2016,04,03,03,11,8.00
2016,04,03,03,12,7.90
2016,04,03,03,13,8.00
2016,04,03,03,14,8.00
2016,04,03,03,15,8.00
2016,04,03,03,16,8.00
2016,04,03,03,17,8.00
2016,04,03,03,18,8.00
2016,04,03,03,19,8.10
2016,04,03,03,20,8.10
2016,04,03,03,21,8.10
2016,04,03,03,22,8.10
2016,04,03,03,23,8.00
2016,04,03,03,24,8.00
2016,04,03,03,25,8.00
2016,04,03,03,26,8.00
2016,04,03,03,27,8.00
2016,04,03,03,28,8.00
2016,04,03,03,29,8.00
2016,04,03,03,30,8.00
2016,04,03,03,31,8.00
2016,04,03,03,32,8.00
2016,04,03,03,33,8.00
2016,04,03,03,34,8.00
2016,04,03,03,35,8.10
2016,04,03,03,36,8.10
2016,04,03,03,37,8.10
2016,04,03,03,38,8.10
2016,04,03,03,39,8.10
2016,04,03,03,40,8.10
2016,04,03,03,41,8.10
2016,04,03,03,42,8.10
2016,04,03,03,43,8.10
2016,04,03,03,44,8.10
2016,04,03,03,45,8.10
2016,04,03,03,46,8.10
2016,04,03,03,47,8.10
2016,04,03,03,48,8.10
2016,04,03,03,49,8.20
2016,04,03,03,50,8.20
2016,04,03,03,51,8.20
2016,04,03,03,52,8.20
2016,04,03,03,53,8.20
2016,04,03,03,54,8.10
2016,04,03,03,55,8.10
2016,04,03,03,56,8.10
2016,04,03,03,57,8.10
2016,04,03,03,58,8.10
2016,04,03,03,59,8.10
2016,04,03,04,00,8.10
2016,04,03,04,01,8.00
2016,04,03,04,02,8.00
2016,04,03,04,03,8.00
2016,04,03,04,04,8.00
2016,04,03,04,05,7.90
2016,04,03,04,06,7.90
2016,04,03,04,07,7.90
2016,04,03,04,08,7.90
2016,04,03,04,09,7.90
2016,04,03,04,10,7.80
2016,04,03,04,11,7.80
2016,04,03,04,12,7.80
2016,04,03,04,13,7.80
2016,04,03,04,14,7.80
2016,04,03,04,15,7.80
2016,04,03,04,16,7.80
2016,04,03,04,17,7.80
2016,04,03,04,18,7.80
2016,04,03,04,19,7.80
2016,04,03,04,20,7.80
2016,04,03,04,21,7.80
2016,04,03,04,22,7.80
2016,04,03,04,23,7.80
2016,04,03,04,24,7.80
2016,04,03,04,25,7.80
2016,04,03,04,26,7.80
2016,04,03,04,27,7.80
2016,04,03,04,28,7.80
2016,04,03,04,29,7.80
2016,04,03,04,30,7.70
2016,04,03,04,31,7.70
2016,04,03,04,32,7.70
2016,04,03,04,33,7.70
2016,04,03,04,34,7.60
2016,04,03,04,35,7.60
2016,04,03,04,36,7.70
2016,04,03,04,37,7.70
2016,04,03,04,38,7.70
2016,04,03,04,39,7.70
2016,04,03,04,40,7.60
2016,04,03,04,41,7.60
2016,04,03,04,42,7.60
2016,04,03,04,43,7.60
2016,04,03,04,44,7.60
2016,04,03,04,45,7.60
2016,04,03,04,46,7.60
2016,04,03,04,47,7.60
2016,04,03,04,48,7.60
2016,04,03,04,49,7.50
2016,04,03,04,50,7.40
2016,04,03,04,51,7.40
2016,04,03,04,52,7.40
2016,04,03,04,53,7.40
2016,04,03,04,54,7.40
2016,04,03,04,55,7.40
2016,04,03,04,56,7.40
2016,04,03,04,57,7.40
2016,04,03,04,58,7.40
2016,04,03,04,59,7.40
2016,04,03,05,00,7.40
2016,04,03,05,01,7.50
2016,04,03,05,02,7.60
2016,04,03,05,03,7.70
2016,04,03,05,04,7.80
2016,04,03,05,05,7.80
2016,04,03,05,06,7.80
2016,04,03,05,07,7.80
2016,04,03,05,08,7.80
2016,04,03,05,09,7.80
2016,04,03,05,10,7.80
2016,04,03,05,11,7.80
2016,04,03,05,12,7.70
2016,04,03,05,13,7.70
2016,04,03,05,14,7.70
2016,04,03,05,15,7.70
2016,04,03,05,16,7.70
2016,04,03,05,17,7.60
2016,04,03,05,18,7.60
2016,04,03,05,19,7.60
2016,04,03,05,20,7.60
2016,04,03,05,21,7.50
2016,04,03,05,22,7.50
2016,04,03,05,23,7.50
2016,04,03,05,24,7.50
2016,04,03,05,25,7.50
2016,04,03,05,26,7.60
2016,04,03,05,27,7.60
2016,04,03,05,28,7.60
2016,04,03,05,29,7.60
2016,04,03,05,30,7.60
2016,04,03,05,31,7.60
2016,04,03,05,32,7.60
2016,04,03,05,33,7.60
2016,04,03,05,34,7.60
2016,04,03,05,35,7.60
2016,04,03,05,36,7.60
2016,04,03,05,37,7.60
2016,04,03,05,38,7.60
2016,04,03,05,39,7.70
2016,04,03,05,40,7.70
2016,04,03,05,41,7.70
2016,04,03,05,42,7.70
2016,04,03,05,43,7.70
2016,04,03,05,44,7.70
2016,04,03,05,45,7.70
2016,04,03,05,46,7.70
2016,04,03,05,47,7.70
2016,04,03,05,48,7.70
2016,04,03,05,49,7.70
2016,04,03,05,50,7.70
2016,04,03,05,51,7.70
2016,04,03,05,52,7.70
2016,04,03,05,53,7.70
2016,04,03,05,54,7.70
2016,04,03,05,55,7.70
2016,04,03,05,56,7.70
2016,04,03,05,57,7.70
2016,04,03,05,58,7.70
2016,04,03,05,59,7.80
2016,04,03,06,00,7.70
2016,04,03,06,01,7.70
2016,04,03,06,02,7.70
2016,04,03,06,03,7.70
2016,04,03,06,04,7.70
2016,04,03,06,05,7.70
2016,04,03,06,06,7.70
2016,04,03,06,07,7.70
2016,04,03,06,08,7.70
2016,04,03,06,09,7.70
2016,04,03,06,10,7.70
2016,04,03,06,11,7.70
2016,04,03,06,12,7.70
2016,04,03,06,13,7.70
2016,04,03,06,14,7.70
2016,04,03,06,15,7.70
2016,04,03,06,16,7.70
2016,04,03,06,17,7.70
2016,04,03,06,18,7.70
2016,04,03,06,19,7.70
2016,04,03,06,20,7.70
2016,04,03,06,21,7.80
2016,04,03,06,22,7.80
2016,04,03,06,23,7.80
2016,04,03,06,24,7.80
2016,04,03,06,25,7.80
2016,04,03,06,26,7.80
2016,04,03,06,27,7.80
2016,04,03,06,28,7.80
2016,04,03,06,29,7.80
2016,04,03,06,30,7.80
2016,04,03,06,31,7.80
2016,04,03,06,32,7.80
2016,04,03,06,33,7.80
2016,04,03,06,34,7.80
2016,04,03,06,35,7.80
2016,04,03,06,36,7.80
2016,04,03,06,37,7.80
2016,04,03,06,38,7.80
2016,04,03,06,39,7.90
2016,04,03,06,40,7.90
2016,04,03,06,41,7.90
2016,04,03,06,42,7.90
2016,04,03,06,43,8.00
2016,04,03,06,44,8.00
2016,04,03,06,45,8.00
2016,04,03,06,46,8.10
2016,04,03,06,47,8.10
2016,04,03,06,48,8.10
2016,04,03,06,49,8.00
2016,04,03,06,50,8.00
2016,04,03,06,51,8.00
2016,04,03,06,52,8.00
2016,04,03,06,53,8.10
2016,04,03,06,54,8.10
2016,04,03,06,55,8.00
2016,04,03,06,56,8.00
2016,04,03,06,57,8.00
2016,04,03,06,58,8.10
2016,04,03,06,59,8.10
2016,04,03,07,00,8.10
2016,04,03,07,01,8.20
2016,04,03,07,02,8.30
2016,04,03,07,03,8.30
2016,04,03,07,04,8.30
2016,04,03,07,05,8.30
2016,04,03,07,06,8.30
2016,04,03,07,07,8.30
2016,04,03,07,08,8.20
2016,04,03,07,09,8.20
2016,04,03,07,10,8.20
2016,04,03,07,11,8.20
2016,04,03,07,12,8.20
2016,04,03,07,13,8.20
2016,04,03,07,14,8.30
2016,04,03,07,15,8.30
2016,04,03,07,16,8.30
2016,04,03,07,17,8.30
2016,04,03,07,18,8.30
2016,04,03,07,19,8.30
2016,04,03,07,20,8.30
2016,04,03,07,21,8.30
2016,04,03,07,22,8.40
2016,04,03,07,23,8.40
2016,04,03,07,24,8.50
2016,04,03,07,25,8.40
2016,04,03,07,26,8.40
2016,04,03,07,27,8.40
2016,04,03,07,28,8.40
2016,04,03,07,29,8.40
2016,04,03,07,30,8.40
2016,04,03,07,31,8.40
2016,04,03,07,32,8.50
2016,04,03,07,33,8.50
2016,04,03,07,34,8.50
2016,04,03,07,35,8.50
2016,04,03,07,36,8.50
2016,04,03,07,37,8.40
2016,04,03,07,38,8.40
2016,04,03,07,39,8.40
2016,04,03,07,40,8.30
2016,04,03,07,41,8.30
2016,04,03,07,42,8.30
2016,04,03,07,43,8.30
2016,04,03,07,44,8.30
2016,04,03,07,45,8.30
2016,04,03,07,46,8.40
2016,04,03,07,47,8.40
2016,04,03,07,48,8.50
2016,04,03,07,49,8.50
2016,04,03,07,50,8.50
2016,04,03,07,51,8.60
2016,04,03,07,52,8.60
2016,04,03,07,53,8.70
2016,04,03,07,54,8.70
2016,04,03,07,55,8.70
2016,04,03,07,56,8.70
2016,04,03,07,57,8.70
2016,04,03,07,58,8.70
2016,04,03,07,59,8.70
2016,04,03,08,00,8.70
2016,04,03,08,01,8.70
2016,04,03,08,02,8.70
2016,04,03,08,03,8.70
2016,04,03,08,04,8.80
2016,04,03,08,05,8.80
2016,04,03,08,06,8.80
2016,04,03,08,07,8.80
2016,04,03,08,08,8.80
2016,04,03,08,09,8.80
2016,04,03,08,10,8.80
2016,04,03,08,11,8.80
2016,04,03,08,12,8.80
2016,04,03,08,13,8.80
2016,04,03,08,14,8.80
2016,04,03,08,15,8.90
2016,04,03,08,16,8.90
2016,04,03,08,17,8.90
2016,04,03,08,18,8.90
2016,04,03,08,19,8.90
2016,04,03,08,20,9.00
2016,04,03,08,21,9.00
2016,04,03,08,22,9.10
2016,04,03,08,23,9.10
2016,04,03,08,24,9.10
2016,04,03,08,25,9.20
2016,04,03,08,26,9.20
2016,04,03,08,27,9.20
2016,04,03,08,28,9.30
2016,04,03,08,29,9.30
2016,04,03,08,30,9.30
2016,04,03,08,31,9.40
2016,04,03,08,32,9.40
2016,04,03,08,33,9.40
2016,04,03,08,34,9.40
2016,04,03,08,35,9.50
2016,04,03,08,36,9.50
2016,04,03,08,37,9.50
2016,04,03,08,38,9.50
2016,04,03,08,39,9.50
2016,04,03,08,40,9.60
2016,04,03,08,41,9.60
2016,04,03,08,42,9.60
2016,04,03,08,43,9.60
2016,04,03,08,44,9.60
2016,04,03,08,45,9.60
2016,04,03,08,46,9.60
2016,04,03,08,47,9.70
2016,04,03,08,48,9.70
2016,04,03,08,49,9.70
2016,04,03,08,50,9.70
2016,04,03,08,51,9.70
2016,04,03,08,52,9.70
2016,04,03,08,53,9.70
2016,04,03,08,54,9.80
2016,04,03,08,55,9.70
2016,04,03,08,56,9.80
2016,04,03,08,57,9.80
2016,04,03,08,58,9.80
2016,04,03,08,59,9.80
2016,04,03,09,00,9.80
2016,04,03,09,01,9.90
2016,04,03,09,02,9.80
2016,04,03,09,03,9.80
2016,04,03,09,04,9.80
2016,04,03,09,05,9.80
2016,04,03,09,06,9.80
2016,04,03,09,07,9.80
2016,04,03,09,08,9.70
2016,04,03,09,09,9.70
2016,04,03,09,10,9.70
2016,04,03,09,11,9.70
2016,04,03,09,12,9.70
2016,04,03,09,13,9.60
2016,04,03,09,14,9.70
2016,04,03,09,15,9.70
2016,04,03,09,16,9.70
2016,04,03,09,17,9.70
2016,04,03,09,18,9.70
2016,04,03,09,19,9.70
2016,04,03,09,20,9.70
2016,04,03,09,21,9.70
2016,04,03,09,22,9.70
2016,04,03,09,23,9.70
2016,04,03,09,24,9.70
2016,04,03,09,25,9.70
2016,04,03,09,26,9.70
2016,04,03,09,27,9.70
2016,04,03,09,28,9.80
2016,04,03,09,29,9.80
2016,04,03,09,30,9.90
2016,04,03,09,31,9.90
2016,04,03,09,32,10.00
2016,04,03,09,33,10.00
2016,04,03,09,34,10.10
2016,04,03,09,35,10.10
2016,04,03,09,36,10.10
2016,04,03,09,37,10.20
2016,04,03,09,38,10.20
2016,04,03,09,39,10.20
2016,04,03,09,40,10.30
2016,04,03,09,41,10.40
2016,04,03,09,42,10.40
2016,04,03,09,43,10.50
2016,04,03,09,44,10.60
2016,04,03,09,45,10.60
2016,04,03,09,46,10.60
2016,04,03,09,47,10.60
2016,04,03,09,48,10.60
2016,04,03,09,49,10.60
2016,04,03,09,50,10.60
2016,04,03,09,51,10.60
2016,04,03,09,52,10.60
2016,04,03,09,53,10.60
2016,04,03,09,54,10.60
2016,04,03,09,55,10.60
2016,04,03,09,56,10.70
2016,04,03,09,57,10.70
2016,04,03,09,58,10.70
2016,04,03,09,59,10.70
2016,04,03,10,00,10.70
2016,04,03,10,01,10.80
2016,04,03,10,02,10.80
2016,04,03,10,03,10.80
2016,04,03,10,04,10.80
2016,04,03,10,05,10.80
2016,04,03,10,06,10.80
2016,04,03,10,07,10.70
2016,04,03,10,08,10.70
2016,04,03,10,09,10.80
2016,04,03,10,10,10.80
2016,04,03,10,11,10.70
2016,04,03,10,12,10.70
2016,04,03,10,13,10.70
2016,04,03,10,14,10.80
2016,04,03,10,15,10.80
2016,04,03,10,16,10.80
2016,04,03,10,17,10.80
2016,04,03,10,18,10.80
2016,04,03,10,19,10.80
2016,04,03,10,20,10.80
2016,04,03,10,21,10.70
2016,04,03,10,22,10.70
2016,04,03,10,23,10.70
2016,04,03,10,24,10.70
2016,04,03,10,25,10.70
2016,04,03,10,26,10.70
2016,04,03,10,27,10.70
2016,04,03,10,28,10.70
2016,04,03,10,29,10.70
2016,04,03,10,30,10.70
2016,04,03,10,31,10.70
2016,04,03,10,32,10.70
2016,04,03,10,33,10.70
2016,04,03,10,34,10.70
2016,04,03,10,35,10.70
2016,04,03,10,36,10.80
2016,04,03,10,37,10.80
2016,04,03,10,38,10.80
2016,04,03,10,39,10.80
2016,04,03,10,40,10.80
2016,04,03,10,41,10.90
2016,04,03,10,42,10.90
2016,04,03,10,43,10.90
2016,04,03,10,44,10.90
2016,04,03,10,45,10.90
2016,04,03,10,46,10.90
2016,04,03,10,47,10.90
2016,04,03,10,48,10.90
2016,04,03,10,49,10.90
2016,04,03,10,50,10.90
2016,04,03,10,51,10.90
2016,04,03,10,52,11.00
2016,04,03,10,53,11.00
2016,04,03,10,54,11.00
2016,04,03,10,55,11.00
2016,04,03,10,56,10.90
2016,04,03,10,57,10.90
2016,04,03,10,58,10.90
2016,04,03,10,59,10.90
2016,04,03,11,00,10.90
2016,04,03,11,01,10.80
2016,04,03,11,02,10.80
2016,04,03,11,03,10.80
2016,04,03,11,04,10.80
2016,04,03,11,05,10.80
2016,04,03,11,06,10.80
2016,04,03,11,07,10.80
2016,04,03,11,08,10.90
2016,04,03,11,09,10.90
2016,04,03,11,10,10.90
2016,04,03,11,11,11.00
2016,04,03,11,12,11.00
2016,04,03,11,13,11.00
2016,04,03,11,14,11.00
2016,04,03,11,15,11.10
2016,04,03,11,16,11.10
2016,04,03,11,17,11.10
2016,04,03,11,18,11.10
2016,04,03,11,19,11.10
2016,04,03,11,20,11.10
2016,04,03,11,21,11.10
2016,04,03,11,22,11.10
2016,04,03,11,23,11.10
2016,04,03,11,24,11.20
2016,04,03,11,25,11.20
2016,04,03,11,26,11.20
2016,04,03,11,27,11.30
2016,04,03,11,28,11.30
2016,04,03,11,29,11.30
2016,04,03,11,30,11.40
2016,04,03,11,31,11.40
2016,04,03,11,32,11.50
2016,04,03,11,33,11.60
2016,04,03,11,34,11.60
2016,04,03,11,35,11.60
2016,04,03,11,36,11.60
2016,04,03,11,37,11.60
2016,04,03,11,38,11.60
2016,04,03,11,39,11.60
2016,04,03,11,40,11.60
2016,04,03,11,41,11.60
2016,04,03,11,42,11.60
2016,04,03,11,43,11.60
2016,04,03,11,44,11.60
2016,04,03,11,45,11.60
2016,04,03,11,46,11.60
2016,04,03,11,47,11.60
2016,04,03,11,48,11.60
2016,04,03,11,49,11.60
2016,04,03,11,50,11.60
2016,04,03,11,51,11.60
2016,04,03,11,52,11.50
2016,04,03,11,53,11.50
2016,04,03,11,54,11.50
2016,04,03,11,55,11.60
2016,04,03,11,56,11.70
2016,04,03,11,57,11.70
2016,04,03,11,58,11.70
2016,04,03,11,59,11.70
2016,04,03,12,00,11.70
2016,04,03,12,01,11.70
2016,04,03,12,02,11.70
2016,04,03,12,03,11.70
2016,04,03,12,04,11.70
2016,04,03,12,05,11.60
2016,04,03,12,06,11.60
2016,04,03,12,07,11.60
2016,04,03,12,08,11.60
2016,04,03,12,09,11.60
2016,04,03,12,10,11.60
2016,04,03,12,11,11.60
2016,04,03,12,12,11.60
2016,04,03,12,13,11.50
2016,04,03,12,14,11.50
2016,04,03,12,15,11.40
2016,04,03,12,16,11.40
2016,04,03,12,17,11.40
2016,04,03,12,18,11.40
2016,04,03,12,19,11.40
2016,04,03,12,20,11.40
2016,04,03,12,21,11.40
2016,04,03,12,22,11.50
2016,04,03,12,23,11.50
2016,04,03,12,24,11.60
2016,04,03,12,25,11.60
2016,04,03,12,26,11.60
2016,04,03,12,27,11.60
2016,04,03,12,28,11.60
2016,04,03,12,29,11.60
2016,04,03,12,30,11.60
2016,04,03,12,31,11.60
2016,04,03,12,32,11.60
2016,04,03,12,33,11.70
2016,04,03,12,34,11.70
2016,04,03,12,35,11.70
2016,04,03,12,36,11.70
2016,04,03,12,37,11.60
2016,04,03,12,38,11.50
2016,04,03,12,39,11.50
2016,04,03,12,40,11.40
2016,04,03,12,41,11.40
2016,04,03,12,42,11.30
2016,04,03,12,43,11.30
2016,04,03,12,44,11.30
2016,04,03,12,45,11.20
2016,04,03,12,46,11.20
2016,04,03,12,47,11.20
2016,04,03,12,48,11.20
2016,04,03,12,49,11.20
2016,04,03,12,50,11.10
2016,04,03,12,51,11.10
2016,04,03,12,52,11.10
2016,04,03,12,53,11.10
2016,04,03,12,54,11.10
2016,04,03,12,55,11.10
2016,04,03,12,56,11.10
2016,04,03,12,57,11.20
2016,04,03,12,58,11.20
2016,04,03,12,59,11.10
2016,04,03,13,00,11.10
2016,04,03,13,01,11.10
2016,04,03,13,02,11.20
2016,04,03,13,03,11.20
2016,04,03,13,04,11.20
2016,04,03,13,05,11.20
2016,04,03,13,06,11.20
2016,04,03,13,07,11.20
2016,04,03,13,08,11.10
2016,04,03,13,09,11.10
2016,04,03,13,10,11.10
2016,04,03,13,11,11.10
2016,04,03,13,12,11.10
2016,04,03,13,13,11.10
2016,04,03,13,14,11.00
2016,04,03,13,15,11.00
2016,04,03,13,16,11.00
2016,04,03,13,17,11.10
2016,04,03,13,18,11.10
2016,04,03,13,19,11.10
2016,04,03,13,20,11.10
2016,04,03,13,21,11.20
2016,04,03,13,22,11.20
2016,04,03,13,23,11.20
2016,04,03,13,24,11.20
2016,04,03,13,25,11.30
2016,04,03,13,26,11.30
2016,04,03,13,27,11.40
2016,04,03,13,28,11.30
2016,04,03,13,29,11.30
2016,04,03,13,30,11.30
2016,04,03,13,31,11.30
2016,04,03,13,32,11.30
2016,04,03,13,33,11.30
2016,04,03,13,34,11.30
2016,04,03,13,35,11.30
2016,04,03,13,36,11.30
2016,04,03,13,37,11.30
2016,04,03,13,38,11.30
2016,04,03,13,39,11.40
2016,04,03,13,40,11.40
2016,04,03,13,41,11.40
2016,04,03,13,42,11.40
2016,04,03,13,43,11.40
2016,04,03,13,44,11.40
2016,04,03,13,45,11.40
2016,04,03,13,46,11.40
2016,04,03,13,47,11.40
2016,04,03,13,48,11.40
2016,04,03,13,49,11.50
2016,04,03,13,50,11.50
2016,04,03,13,51,11.60
2016,04,03,13,52,11.60
2016,04,03,13,53,11.60
2016,04,03,13,54,11.60
2016,04,03,13,55,11.60
2016,04,03,13,56,11.60
2016,04,03,13,57,11.60
2016,04,03,13,58,11.60
2016,04,03,13,59,11.60
2016,04,03,14,00,11.70
2016,04,03,14,01,11.60
2016,04,03,14,02,11.70
2016,04,03,14,03,11.70
2016,04,03,14,04,11.70
2016,04,03,14,05,11.70
2016,04,03,14,06,11.70
2016,04,03,14,07,11.70
2016,04,03,14,08,11.70
2016,04,03,14,09,11.70
2016,04,03,14,10,11.70
2016,04,03,14,11,11.70
2016,04,03,14,12,11.70
2016,04,03,14,13,11.70
2016,04,03,14,14,11.70
2016,04,03,14,15,11.60
2016,04,03,14,16,11.60
2016,04,03,14,17,11.60
2016,04,03,14,18,11.50
2016,04,03,14,19,11.40
2016,04,03,14,20,11.40
2016,04,03,14,21,11.40
2016,04,03,14,22,11.40
2016,04,03,14,23,11.30
2016,04,03,14,24,11.30
2016,04,03,14,25,11.30
2016,04,03,14,26,11.30
2016,04,03,14,27,11.20
2016,04,03,14,28,11.20
2016,04,03,14,29,11.20
2016,04,03,14,30,11.30
2016,04,03,14,31,11.30
2016,04,03,14,32,11.20
2016,04,03,14,33,11.30
2016,04,03,14,34,11.30
2016,04,03,14,35,11.30
2016,04,03,14,36,11.30
2016,04,03,14,37,11.30
2016,04,03,14,38,11.30
2016,04,03,14,39,11.30
2016,04,03,14,40,11.30
2016,04,03,14,41,11.30
2016,04,03,14,42,11.30
2016,04,03,14,43,11.30
2016,04,03,14,44,11.30
2016,04,03,14,45,11.30
2016,04,03,14,46,11.30
2016,04,03,14,47,11.30
2016,04,03,14,48,11.30
2016,04,03,14,49,11.30
2016,04,03,14,50,11.30
2016,04,03,14,51,11.30
2016,04,03,14,52,11.30
2016,04,03,14,53,11.30
2016,04,03,14,54,11.30
2016,04,03,14,55,11.30
2016,04,03,14,56,11.30
2016,04,03,14,57,11.30
2016,04,03,14,58,11.30
2016,04,03,14,59,11.30
2016,04,03,15,00,11.30
2016,04,03,15,01,11.30
2016,04,03,15,02,11.30
2016,04,03,15,03,11.30
2016,04,03,15,04,11.30
2016,04,03,15,05,11.30
2016,04,03,15,06,11.30
2016,04,03,15,07,11.30
2016,04,03,15,08,11.30
2016,04,03,15,09,11.30
2016,04,03,15,10,11.30
2016,04,03,15,11,11.30
2016,04,03,15,12,11.30
2016,04,03,15,13,11.30
2016,04,03,15,14,11.30
2016,04,03,15,15,11.30
2016,04,03,15,16,11.30
2016,04,03,15,17,11.20
2016,04,03,15,18,11.30
2016,04,03,15,19,11.30
2016,04,03,15,20,11.30
2016,04,03,15,21,11.30
2016,04,03,15,22,11.30
2016,04,03,15,23,11.30
2016,04,03,15,24,11.30
2016,04,03,15,25,11.30
2016,04,03,15,26,11.30
2016,04,03,15,27,11.30
2016,04,03,15,28,11.30
2016,04,03,15,29,11.30
2016,04,03,15,30,11.30
2016,04,03,15,31,11.30
2016,04,03,15,32,11.30
2016,04,03,15,33,11.30
2016,04,03,15,34,11.30
2016,04,03,15,35,11.30
2016,04,03,15,36,11.40
2016,04,03,15,37,11.40
2016,04,03,15,38,11.40
2016,04,03,15,39,11.40
2016,04,03,15,40,11.40
2016,04,03,15,41,11.50
2016,04,03,15,42,11.50
2016,04,03,15,43,11.50
2016,04,03,15,44,11.50
2016,04,03,15,45,11.50
2016,04,03,15,46,11.60
2016,04,03,15,47,11.60
2016,04,03,15,48,11.60
2016,04,03,15,49,11.60
2016,04,03,15,50,11.50
2016,04,03,15,51,11.50
2016,04,03,15,52,11.50
2016,04,03,15,53,11.50
2016,04,03,15,54,11.50
2016,04,03,15,55,11.60
2016,04,03,15,56,11.60
2016,04,03,15,57,11.60
2016,04,03,15,58,11.60
2016,04,03,15,59,11.60
2016,04,03,16,00,11.60
2016,04,03,16,01,11.60
2016,04,03,16,02,11.60
2016,04,03,16,03,11.60
2016,04,03,16,04,11.60
2016,04,03,16,05,11.60
2016,04,03,16,06,11.60
2016,04,03,16,07,11.60
2016,04,03,16,08,11.60
2016,04,03,16,09,11.60
2016,04,03,16,10,11.60
2016,04,03,16,11,11.60
2016,04,03,16,12,11.60
2016,04,03,16,13,11.60
2016,04,03,16,14,11.60
2016,04,03,16,15,11.60
2016,04,03,16,16,11.60
2016,04,03,16,17,11.60
2016,04,03,16,18,11.60
2016,04,03,16,19,11.60
2016,04,03,16,20,11.60
2016,04,03,16,21,11.60
2016,04,03,16,22,11.60
2016,04,03,16,23,11.70
2016,04,03,16,24,11.60
2016,04,03,16,25,11.60
2016,04,03,16,26,11.60
2016,04,03,16,27,11.60
2016,04,03,16,28,11.60
2016,04,03,16,29,11.60
2016,04,03,16,30,11.60
2016,04,03,16,31,11.50
2016,04,03,16,32,11.50
2016,04,03,16,33,11.40
2016,04,03,16,34,11.40
2016,04,03,16,35,11.40
2016,04,03,16,36,11.40
2016,04,03,16,37,11.30
2016,04,03,16,38,11.30
2016,04,03,16,39,11.30
2016,04,03,16,40,11.30
2016,04,03,16,41,11.30
2016,04,03,16,42,11.30
2016,04,03,16,43,11.40
2016,04,03,16,44,11.40
2016,04,03,16,45,11.40
2016,04,03,16,46,11.40
2016,04,03,16,47,11.40
2016,04,03,16,48,11.40
2016,04,03,16,49,11.40
2016,04,03,16,50,11.40
2016,04,03,16,51,11.40
2016,04,03,16,52,11.40
2016,04,03,16,53,11.40
2016,04,03,16,54,11.50
2016,04,03,16,55,11.50
2016,04,03,16,56,11.50
2016,04,03,16,57,11.50
2016,04,03,16,58,11.50
2016,04,03,16,59,11.60
2016,04,03,17,00,11.60
2016,04,03,17,01,11.60
2016,04,03,17,02,11.70
2016,04,03,17,03,11.70
2016,04,03,17,04,11.70
2016,04,03,17,05,11.70
2016,04,03,17,06,11.70
2016,04,03,17,07,11.70
2016,04,03,17,08,11.70
2016,04,03,17,09,11.70
2016,04,03,17,10,11.60
2016,04,03,17,11,11.60
2016,04,03,17,12,11.60
2016,04,03,17,13,11.60
2016,04,03,17,14,11.50
2016,04,03,17,15,11.50
2016,04,03,17,16,11.40
2016,04,03,17,17,11.40
2016,04,03,17,18,11.40
2016,04,03,17,19,11.40
2016,04,03,17,20,11.30
2016,04,03,17,21,11.30
2016,04,03,17,22,11.30
2016,04,03,17,23,11.30
2016,04,03,17,24,11.30
2016,04,03,17,25,11.30
2016,04,03,17,26,11.30
2016,04,03,17,27,11.20
2016,04,03,17,28,11.20
2016,04,03,17,29,11.20
2016,04,03,17,30,11.20
2016,04,03,17,31,11.20
2016,04,03,17,32,11.20
2016,04,03,17,33,11.20
2016,04,03,17,34,11.20
2016,04,03,17,35,11.20
2016,04,03,17,36,11.20
2016,04,03,17,37,11.20
2016,04,03,17,38,11.20
2016,04,03,17,39,11.20
2016,04,03,17,40,11.20
2016,04,03,17,41,11.20
2016,04,03,17,42,11.20
2016,04,03,17,43,11.20
2016,04,03,17,44,11.20